Torna al catalogo

FENGYUN 1C DEB

AttivoLEO
NORAD 32168·DEBRIS·🇨🇳 China

Lanciato May 10, 1999 da Taiyuan Satellite Launch Center

Loading…

Prossimi Passaggi (prossime 24 ore)

TLE

AggiornatoSource: Space-Track

Epoca: Sep 13, 2026, 15:52 UTC

1 32168U 99025CTN 26256.66131795  .00003205  00000-0  21677-2 0  9999
2 32168 101.6574  37.9732 0245368 280.7014  76.6595 13.87838238672911

Traccia FENGYUN 1C DEB in tempo reale con AllMySat

Download on the App Store